Location: Dzierzno
(50.6159°N, 19.2852°E)
Time: 03:20:42
(UTC+00:00)

Geosat FO - Pass Details

Date: 18 November 2025
Orbit: 363 x 448 km, 108.0° (Epoch: 04 December)

Event Time Altitude Azimuth Distance (km) Brightness Sun altitude
Exits shadow 16:20:18 13° 133° (SE) 1,185 6.2 -13.7°
Maximum altitude 16:22:42 55° 56° (NE) 445 4.0 -14.0°
Drops below altitude 10° 16:25:30 10° 337° (NNW) 1,366 7.0 -14.5°
Sets 16:27:21 0° 333° (NNW) 2,178 8.1 -14.8°
